Crane Lake, MN

5:26 AM CST on December 10, 2016 (GMT -0600)
Crane Lake

Weather History for KCDD - August, 2013

Change the Weather History Date:

Thursday, August 22, 2013

  Actual Average Record
Temperature  
Mean Temperature 60 °F -  
Max Temperature 78 °F 73 °F 87 °F (2010)
Min Temperature 42 °F 52 °F 5 °F (1997)
Degree Days  
Heating Degree Days 5    
Growing Degree Days 10 (Base 50)    
Moisture  
Dew Point 46 °F    
Average Humidity 68    
Maximum Humidity 100    
Minimum Humidity 32    
Precipitation  
Precipitation 0.00 in - - ()
Sea Level Pressure  
Sea Level Pressure 30.15 in    
Wind  
Wind Speed 1 mph (North)    
Max Wind Speed 8 mph    
Max Gust Speed -    
Visibility 10 miles    
Events      
Averages and records for this station are not official NWS values.
T = Trace of Precipitation, MM = Missing Value Source: NWS Daily Summary

Daily Weather History Graph

Daily Weather History Graph

Search for Another Location

Airport or City:

Trip Planner

Search our weather history database for the weather conditions in past years. The results will help you decide how hot, cold, wet, or windy it might be!

Date:

Astronomy

Aug. 22, 2013 Rise Set
Actual Time 6:14 AM CDT 8:10 PM CDT
Civil Twilight 5:40 AM CDT 8:43 PM CDT
Nautical Twilight 4:59 AM CDT 9:24 PM CDT
Astronomical Twilight 4:13 AM CDT 10:10 PM CDT
Moon 8:38 PM CDT (8/22) 8:16 AM CDT (8/22)
Length of Visible Light 15h 03m
Length of Day
13h 56m
Waning Gibbous, 96% of the Moon is Illuminated
Aug 22
Waning Gibbous
Aug 28
Last Quarter
Sep 5
New
Sep 12
First Quarter
Sep 19
Full

Hourly Weather History & Observations

Time (CDT) Temp. Dew Point Humidity Pressure Visibility Wind Dir Wind Speed Gust Speed Precip Events Conditions
12:11 AM 48.2 °F 46.4 °F 93% 30.07 in 10.0 mi Calm Calm - N/A   Clear
12:31 AM 48.2 °F 46.4 °F 93% 30.07 in 10.0 mi Calm Calm - N/A   Clear
12:51 AM 48.2 °F 46.4 °F 93% 30.08 in 10.0 mi Calm Calm - N/A   Clear
1:11 AM 48.2 °F 46.4 °F 93% 30.08 in 10.0 mi Calm Calm - N/A   Clear
1:31 AM 50.0 °F 46.4 °F 87% 30.09 in 10.0 mi Calm Calm - N/A   Clear
1:51 AM 48.2 °F 46.4 °F 93% 30.09 in 10.0 mi Calm Calm - N/A   Clear
2:11 AM 48.2 °F 46.4 °F 93% 30.10 in 10.0 mi Calm Calm - N/A   Clear
2:31 AM 46.4 °F 44.6 °F 93% 30.11 in 10.0 mi Calm Calm - N/A   Clear
2:51 AM 46.4 °F 44.6 °F 93% 30.11 in 10.0 mi Calm Calm - N/A   Clear
3:11 AM 46.4 °F 44.6 °F 93% 30.12 in 10.0 mi Calm Calm - N/A   Clear
3:31 AM 44.6 °F 42.8 °F 93% 30.13 in 10.0 mi Calm Calm - N/A   Clear
3:51 AM 44.6 °F 42.8 °F 93% 30.13 in 10.0 mi Calm Calm - N/A   Clear
4:11 AM 44.6 °F 42.8 °F 93% 30.14 in 10.0 mi Calm Calm - N/A   Clear
4:31 AM 44.6 °F 42.8 °F 93% 30.14 in 10.0 mi Calm Calm - N/A   Clear
4:51 AM 42.8 °F 42.8 °F 100% 30.14 in 10.0 mi Calm Calm - N/A   Clear
5:11 AM 42.8 °F 41.0 °F 93% 30.15 in 10.0 mi Calm Calm - N/A   Clear
5:31 AM 42.8 °F 42.8 °F 100% 30.14 in 10.0 mi Calm Calm - N/A   Clear
5:51 AM 42.8 °F 39.2 °F 87% 30.15 in 10.0 mi Calm Calm - N/A   Clear
6:11 AM 42.8 °F 39.2 °F 87% 30.15 in 10.0 mi Calm Calm - N/A   Clear
6:31 AM 42.8 °F 39.2 °F 87% 30.16 in 10.0 mi Calm Calm - N/A   Clear
6:51 AM 42.8 °F 39.2 °F 87% 30.16 in 10.0 mi Calm Calm - N/A   Clear
7:11 AM 42.8 °F 41.0 °F 93% 30.17 in 10.0 mi Calm Calm - N/A   Clear
7:31 AM 44.6 °F 42.8 °F 93% 30.17 in 10.0 mi Calm Calm - N/A   Clear
7:51 AM 46.4 °F 44.6 °F 93% 30.17 in 10.0 mi Calm Calm - N/A   Clear
8:11 AM 48.2 °F 46.4 °F 93% 30.17 in 10.0 mi Calm Calm - N/A   Clear
8:31 AM 53.6 °F 51.8 °F 94% 30.17 in 10.0 mi Calm Calm - N/A   Clear
8:51 AM 57.2 °F 53.6 °F 88% 30.16 in 10.0 mi NNW 3.5 mph - N/A   Clear
9:11 AM 62.6 °F 57.2 °F 82% 30.17 in 10.0 mi NW 3.5 mph - N/A   Clear
9:31 AM 66.2 °F 59.0 °F 78% 30.17 in 10.0 mi NNW 3.5 mph - N/A   Clear
9:51 AM 68.0 °F 59.0 °F 73% 30.17 in 10.0 mi NW 6.9 mph - N/A   Clear
10:11 AM 69.8 °F 57.2 °F 64% 30.18 in 10.0 mi Calm Calm - N/A   Clear
10:31 AM 69.8 °F 53.6 °F 56% 30.18 in 10.0 mi North 4.6 mph - N/A   Clear
10:51 AM 69.8 °F 51.8 °F 53% 30.18 in 10.0 mi NNE 4.6 mph - N/A   Clear
11:11 AM 71.6 °F 53.6 °F 53% 30.18 in 10.0 mi North 3.5 mph - N/A   Clear
11:31 AM 73.4 °F 51.8 °F 47% 30.19 in 10.0 mi NNE 4.6 mph - N/A   Clear
11:51 AM 73.4 °F 51.8 °F 47% 30.19 in 10.0 mi Calm Calm - N/A   Clear
12:11 PM 73.4 °F 51.8 °F 47% 30.19 in 10.0 mi NW 5.8 mph - N/A   Clear
12:31 PM 75.2 °F 50.0 °F 41% 30.18 in 10.0 mi North 5.8 mph - N/A   Clear
12:51 PM 75.2 °F 48.2 °F 38% 30.18 in 10.0 mi North 4.6 mph - N/A   Clear
1:11 PM 75.2 °F 46.4 °F 36% 30.18 in 10.0 mi North 5.8 mph - N/A   Clear
1:31 PM 75.2 °F 46.4 °F 36% 30.17 in 10.0 mi North 3.5 mph - N/A   Scattered Clouds
1:51 PM 77.0 °F 48.2 °F 36% 30.17 in 10.0 mi NW 6.9 mph - N/A   Clear
2:11 PM 77.0 °F 46.4 °F 34% 30.17 in 10.0 mi Calm Calm - N/A   Clear
2:31 PM 77.0 °F 48.2 °F 36% 30.17 in 10.0 mi North 3.5 mph - N/A   Clear
2:51 PM 78.8 °F 46.4 °F 32% 30.17 in 10.0 mi North 5.8 mph - N/A   Clear
3:11 PM 77.0 °F 44.6 °F 32% 30.16 in 10.0 mi North 5.8 mph - N/A   Clear
3:31 PM 77.0 °F 44.6 °F 32% 30.16 in 10.0 mi North 4.6 mph - N/A   Clear
3:51 PM 77.0 °F 44.6 °F 32% 30.16 in 10.0 mi Calm Calm - N/A   Clear
4:11 PM 77.0 °F 44.6 °F 32% 30.16 in 10.0 mi North 8.1 mph - N/A   Clear
4:31 PM 77.0 °F 44.6 °F 32% 30.16 in 10.0 mi North 5.8 mph - N/A   Clear
4:51 PM 77.0 °F 44.6 °F 32% 30.16 in 10.0 mi NNE 4.6 mph - N/A   Clear
5:11 PM 77.0 °F 44.6 °F 32% 30.16 in 10.0 mi North 4.6 mph - N/A   Clear
5:31 PM 75.2 °F 44.6 °F 34% 30.15 in 10.0 mi North 5.8 mph - N/A   Clear
5:51 PM 75.2 °F 44.6 °F 34% 30.15 in 10.0 mi Calm Calm - N/A   Clear
6:11 PM 77.0 °F 44.6 °F 32% 30.15 in 10.0 mi Calm Calm - N/A   Clear
6:31 PM 75.2 °F 46.4 °F 36% 30.15 in 10.0 mi Calm Calm - N/A   Clear
6:51 PM 75.2 °F 46.4 °F 36% 30.15 in 10.0 mi Calm Calm - N/A   Clear
7:11 PM 73.4 °F 46.4 °F 38% 30.15 in 10.0 mi Calm Calm - N/A   Clear
7:31 PM 66.2 °F 48.2 °F 52% 30.15 in 10.0 mi Calm Calm - N/A   Clear
7:51 PM 60.8 °F 46.4 °F 59% 30.15 in 10.0 mi Calm Calm - N/A   Clear
8:11 PM 57.2 °F 46.4 °F 67% 30.15 in 10.0 mi Calm Calm - N/A   Clear
8:31 PM 53.6 °F 46.4 °F 77% 30.16 in 10.0 mi Calm Calm - N/A   Clear
8:51 PM 53.6 °F 46.4 °F 77% 30.16 in 10.0 mi Calm Calm - N/A   Clear
9:11 PM 51.8 °F 46.4 °F 82% 30.16 in 10.0 mi Calm Calm - N/A   Clear
9:31 PM 51.8 °F 46.4 °F 82% 30.16 in 10.0 mi Calm Calm - N/A   Clear
9:51 PM 50.0 °F 46.4 °F 87% 30.16 in 10.0 mi Calm Calm - N/A   Clear
10:11 PM 48.2 °F 44.6 °F 87% 30.17 in 10.0 mi Calm Calm - N/A   Clear
10:31 PM 48.2 °F 44.6 °F 87% 30.17 in 10.0 mi Calm Calm - N/A   Clear
10:51 PM 46.4 °F 44.6 °F 93% 30.17 in 10.0 mi Calm Calm - N/A   Clear
11:11 PM 46.4 °F 42.8 °F 87% 30.17 in 10.0 mi Calm Calm - N/A   Clear
11:31 PM 46.4 °F 42.8 °F 87% 30.17 in 10.0 mi Calm Calm - N/A   Clear
11:51 PM 44.6 °F 42.8 °F 93% 30.17 in 10.0 mi Calm Calm - N/A   Clear